Weather History for HEAX - May, 2013

Change the Weather History Date:

Thursday, May 30, 2013

  Actual Average Record
Temperature  
Mean Temperature 76 °F -  
Max Temperature 81 °F 81 °F 108 °F (2014)
Min Temperature 69 °F 69 °F 59 °F (1997)
Cooling Degree Days 10    
Growing Degree Days 26 (Base 50)    
Moisture  
Dew Point 66 °F    
Average Humidity 73    
Maximum Humidity 88    
Minimum Humidity 51    
Precipitation  
Precipitation 0.00 in 0.00 in - ()
Sea Level Pressure  
Sea Level Pressure 29.79 in    
Wind  
Wind Speed 13 mph ()    
Max Wind Speed 18 mph    
Max Gust Speed -    
Visibility 6.1 miles    
Events      
Averages and records for this station are not official NWS values.
T = Trace of Precipitation, MM = Missing Value Source: Averaged Metar Reports

Daily Weather History Graph

Daily Weather History Graph

Search for Another Location

Airport or City:

Trip Planner

Search our weather history database for the weather conditions in past years. The results will help you decide how hot, cold, wet, or windy it might be!

Date:

Astronomy

May. 30, 2013 Rise Set
Actual Time 4:57 AM EET 6:58 PM EET
Civil Twilight 4:30 AM EET 7:25 PM EET
Nautical Twilight 3:56 AM EET 7:59 PM EET
Astronomical Twilight 3:21 AM EET 8:34 PM EET
Moon 11:39 PM EET (5/30) 10:29 AM EET (5/30)
Length of Visible Light 14h 55m
Length of Day
14h 00m
Waning Gibbous, 65% of the Moon is Illuminated
May 30
Waning Gibbous
May 31
Last Quarter
Jun 8
New
Jun 16
First Quarter
Jun 23
Full

Hourly Weather History & Observations

Time (EET) Temp. Heat Index Dew Point Humidity Pressure Visibility Wind Dir Wind Speed Gust Speed Precip Events Conditions
12:00 AM 78.8 °F - 68.0 °F 69% 29.71 in - West 13.8 mph - N/A   Clear
1:00 AM 77.0 °F - 68.0 °F 74% 29.71 in - WNW 17.3 mph - N/A   Clear
2:00 AM 74 °F - 69 °F 81% 29.73 in 6 mi WNW 18.4 mph - -  
2:00 AM 73.4 °F - 69.8 °F 88% 29.71 in - WNW 18.4 mph - N/A   Clear
3:00 AM 73.4 °F - 69.8 °F 88% 29.74 in - WNW 17.3 mph - N/A   Clear
4:00 AM 73.4 °F - 69.8 °F 88% 29.74 in - WNW 18.4 mph - N/A   Clear
5:00 AM 71.6 °F - 66.2 °F 83% 29.77 in 6.2 mi NW 18.4 mph - N/A   Partly Cloudy
6:00 AM 71.6 °F - 66.2 °F 83% 29.77 in 6.2 mi WNW 17.3 mph - N/A   Scattered Clouds
7:00 AM 73.4 °F - 66.2 °F 78% 29.80 in 6.2 mi WNW 18.4 mph - N/A   Partly Cloudy
8:00 AM 74 °F - 66 °F 70% 29.82 in 6 mi NW 15.0 mph - -  
8:00 AM 75.2 °F - 66.2 °F 73% 29.80 in - NW 15.0 mph - N/A   Clear
9:00 AM 77.0 °F - 64.4 °F 65% 29.83 in - NW 15.0 mph - N/A   Clear
10:00 AM 80.6 °F 82.3 °F 64.4 °F 58% 29.83 in - WNW 11.5 mph - N/A   Clear
11:00 AM 80.6 °F 81.5 °F 60.8 °F 51% 29.83 in - WNW 9.2 mph - N/A   Clear
12:00 PM 80.6 °F 81.8 °F 62.6 °F 54% 29.83 in - WNW 11.5 mph - N/A   Clear
1:00 PM 80.6 °F 82.7 °F 66.2 °F 61% 29.83 in - West 12.7 mph - N/A   Clear
2:00 PM 80.6 °F 82.7 °F 66.2 °F 61% 29.83 in - WNW 13.8 mph - N/A   Clear
3:00 PM 80.6 °F 82.7 °F 66.2 °F 61% 29.80 in - WNW 11.5 mph - N/A   Clear
4:00 PM 78.8 °F - 66.2 °F 65% 29.80 in - NNW 11.5 mph - N/A   Clear
5:00 PM 78.8 °F - 68.0 °F 69% 29.80 in - West 11.5 mph - N/A   Clear
6:00 PM 75.2 °F - 66.2 °F 73% 29.80 in - WNW 9.2 mph - N/A   Clear
7:00 PM 73.4 °F - 68.0 °F 83% 29.80 in - WNW 8.1 mph - N/A   Clear
8:00 PM 74 °F - 68 °F 76% 29.83 in 6 mi WNW 9.2 mph - -  
8:00 PM 73.4 °F - 68.0 °F 83% 29.80 in - WNW 9.2 mph - N/A   Clear
9:00 PM 71.6 °F - 68.0 °F 88% 29.83 in - WNW 6.9 mph - N/A   Clear
10:00 PM 71.6 °F - 68.0 °F 88% 29.83 in - WNW 4.6 mph - N/A   Clear
11:00 PM 69.8 °F - 59.0 °F 68% 29.83 in - Calm Calm - N/A   Clear